TimeCDT,TemperatureF,Dew PointF,Humidity,Sea Level PressureIn,VisibilityMPH,Wind Direction,Wind SpeedMPH,Gust SpeedMPH,PrecipitationIn,Events,Conditions,WindDirDegrees,DateUTC
12:53 AM,60.1,57.0,90,29.87,10.0,North,6.9,-,N/A,,Clear,10,2013-04-03 05:53:00
1:53 AM,61.0,57.9,90,29.94,10.0,West,12.7,-,N/A,,Overcast,280,2013-04-03 06:53:00
2:53 AM,62.1,60.1,93,29.96,8.0,West,6.9,-,0.02,Rain,Light Rain,280,2013-04-03 07:53:00
3:09 AM,62.6,59.0,88,29.96,10.0,WNW,6.9,-,0.00,Rain,Light Rain,300,2013-04-03 08:09:00
3:53 AM,60.1,57.9,93,29.90,6.0,North,6.9,-,0.07,Rain,Rain,10,2013-04-03 08:53:00
4:53 AM,60.1,57.9,93,29.68,9.0,ENE,24.2,29.9,0.01,,Overcast,70,2013-04-03 09:53:00
5:16 AM,59.0,57.2,94,29.83,9.0,West,21.9,34.5,0.00,,Scattered Clouds,280,2013-04-03 10:16:00
5:23 AM,57.2,57.2,100,29.85,8.0,WNW,21.9,29.9,0.00,,Mostly Cloudy,290,2013-04-03 10:23:00
5:44 AM,57.2,55.4,94,29.91,5.0,WNW,15.0,24.2,0.00,,Overcast,290,2013-04-03 10:44:00
5:53 AM,57.9,55.9,93,29.91,5.0,NW,13.8,24.2,0.00,,Overcast,310,2013-04-03 10:53:00
6:44 AM,55.4,53.6,94,29.92,6.0,North,19.6,28.8,0.01,,Overcast,360,2013-04-03 11:44:00
6:53 AM,55.9,54.0,93,29.92,7.0,North,19.6,28.8,0.01,,Overcast,10,2013-04-03 11:53:00
7:40 AM,55.4,51.8,88,29.95,9.0,NNE,11.5,-,N/A,,Overcast,20,2013-04-03 12:40:00
7:53 AM,55.0,52.0,89,29.95,9.0,NE,10.4,-,N/A,,Overcast,40,2013-04-03 12:53:00
8:14 AM,55.4,51.8,88,29.95,10.0,NE,11.5,-,N/A,,Scattered Clouds,40,2013-04-03 13:14:00
8:31 AM,53.6,51.8,94,29.97,10.0,North,15.0,-,N/A,,Mostly Cloudy,350,2013-04-03 13:31:00
8:53 AM,54.0,50.0,86,29.99,10.0,North,12.7,-,N/A,,Overcast,360,2013-04-03 13:53:00
9:53 AM,54.0,48.9,83,30.02,10.0,NNE,12.7,-,N/A,,Overcast,20,2013-04-03 14:53:00
10:53 AM,55.0,50.0,83,30.01,10.0,NNE,12.7,-,N/A,,Overcast,30,2013-04-03 15:53:00
11:53 AM,57.9,51.1,78,30.00,10.0,NNE,12.7,-,N/A,,Overcast,20,2013-04-03 16:53:00
12:53 PM,55.9,50.0,80,29.96,10.0,NE,9.2,-,N/A,,Overcast,50,2013-04-03 17:53:00
1:53 PM,55.9,51.1,84,29.99,10.0,NNE,15.0,-,0.00,Rain,Light Rain,20,2013-04-03 18:53:00
2:53 PM,55.0,51.1,86,29.99,6.0,NE,10.4,21.9,0.00,Rain,Light Rain,40,2013-04-03 19:53:00
3:53 PM,55.0,51.1,86,29.96,7.0,NNE,9.2,19.6,0.00,,Overcast,30,2013-04-03 20:53:00
4:53 PM,54.0,50.0,86,29.99,7.0,NNW,13.8,21.9,0.00,,Overcast,340,2013-04-03 21:53:00
5:07 PM,53.6,50.0,88,30.00,5.0,North,16.1,-,N/A,,Overcast,360,2013-04-03 22:07:00
5:53 PM,53.1,50.0,89,29.99,5.0,North,11.5,-,0.01,Rain,Light Rain,350,2013-04-03 22:53:00
6:17 PM,53.6,51.8,94,30.02,2.0,North,11.5,-,0.00,Rain,Light Rain,350,2013-04-03 23:17:00
6:45 PM,53.6,50.0,88,30.03,3.0,North,12.7,-,0.00,,Overcast,360,2013-04-03 23:45:00
6:53 PM,52.0,50.0,93,30.03,2.5,North,12.7,-,0.00,,Overcast,360,2013-04-03 23:53:00
7:13 PM,53.6,50.0,88,30.04,4.0,North,9.2,-,N/A,,Overcast,350,2013-04-04 00:13:00
7:36 PM,51.8,50.0,94,30.06,4.0,NNW,8.1,-,N/A,,Overcast,340,2013-04-04 00:36:00
7:53 PM,52.0,50.0,93,30.05,4.0,NNW,9.2,-,N/A,,Overcast,340,2013-04-04 00:53:00
8:53 PM,52.0,50.0,93,30.06,3.0,North,10.4,-,N/A,,Overcast,360,2013-04-04 01:53:00
9:53 PM,51.1,48.9,92,30.09,4.0,NNW,9.2,-,N/A,,Overcast,340,2013-04-04 02:53:00
10:22 PM,51.8,48.2,88,30.10,7.0,North,10.4,-,N/A,,Overcast,360,2013-04-04 03:22:00
10:53 PM,51.1,48.0,89,30.10,9.0,North,9.2,-,N/A,,Overcast,360,2013-04-04 03:53:00
11:05 PM,51.8,48.2,88,30.10,8.0,North,10.4,-,N/A,,Overcast,360,2013-04-04 04:05:00
11:22 PM,51.8,48.2,88,30.11,8.0,North,8.1,-,N/A,,Overcast,360,2013-04-04 04:22:00
11:53 PM,51.1,48.0,89,30.11,7.0,North,9.2,-,N/A,,Overcast,360,2013-04-04 04:53:00